This demonstration page uses our WeatherBlox Daily Observations layout. Learn more.

Left ArrowRight Arrow

Hourly Observations for August 17, 2020

Temp ( °F °C ) Dew Point ( °F °C ) Humidity (%) Winds ( mph kmh ) Pressure ( in mb ) Visibility ( mi km ) Precip ( " mm )
12:15 am 00:15 Clear 67 19.4 63 17.1 87 87 SSE 5 7 30.13 1020 10 16 N/A
12:35 am 00:35 Clear 66 19 63 17.1 89 89 S 3 6 30.13 1020 10 16 N/A
12:55 am 00:55 Clear 66 18.7 63 17 90 90 SSW 5 7 30.15 1021 10 16 N/A
1:15 am 01:15 Clear 66 19 63 17.3 90 90 S 7 11 30.15 1021 10 16 N/A
1:35 am 01:35 Clear 65 18.5 63 17 91 91 N N/A 30.16 1021 10 16 N/A
1:55 am 01:55 Clear 65 18.4 63 17.1 92 92 SSW 6 9 30.17 1022 10 16 N/A
2:15 am 02:15 Clear 65 18.4 63 17.2 93 93 N N/A 30.16 1021 10 16 N/A
2:35 am 02:35 Clear 64 17.6 62 16.5 93 93 N N/A 30.17 1022 10 16 N/A
2:55 am 02:55 Clear 65 18.1 63 17.1 94 94 SW 3 6 30.18 1022 10 16 N/A
3:15 am 03:15 Clear 64 17.6 62 16.5 93 93 N N/A 30.16 1021 10 16 N/A
3:35 am 03:35 Clear 62 16.4 60 15.6 95 95 W 3 6 30.17 1022 10 16 N/A
3:55 am 03:55 Clear with Mist and Fog 61 15.9 60 15.3 96 96 WNW 3 6 30.18 1022 5 8 N/A
4:15 am 04:15 Clear with Mist and Fog 60 15.8 59 15.2 96 96 N N/A 30.17 1022 5 8 N/A
4:35 am 04:35 Clear 62 16.5 61 16 97 97 WNW 6 9 30.19 1022 7 11 N/A
4:55 am 04:55 Clear 61 16 60 15.4 96 96 WNW 5 7 30.17 1022 7 11 N/A
5:15 am 05:15 Clear 60 15.6 59 15 96 96 NNW 3 6 30.17 1022 7 11 N/A
5:35 am 05:35 Clear 60 15.6 59 15.1 97 97 NNW 3 6 30.18 1022 7 11 N/A
5:55 am 05:55 Clear 60 15.7 59 15.2 97 97 NNW 5 7 30.18 1022 7 11 N/A
6:15 am 06:15 Clear 60 15.7 59 15.2 97 97 NNW 5 7 30.19 1022 7 11 N/A
6:35 am 06:35 Clear 60 15.8 59 15.2 96 96 NNW 3 6 30.19 1022 7 11 N/A
6:55 am 06:55 Sunny with Mist and Fog 60 15.6 59 15 96 96 N 3 6 30.19 1022 5 8 N/A
7:15 am 07:15 Sunny with Mist and Fog 60 15.8 59 15.2 96 96 N N/A 30.22 1023 5 8 N/A
7:35 am 07:35 Sunny with Mist and Fog 60 15.7 59 15.1 96 96 N N/A 30.22 1023 5 8 N/A
7:55 am 07:55 Sunny with Mist and Fog 62 16.6 61 16 96 96 N N/A 30.23 1024 5 8 N/A
8:15 am 08:15 Sunny 64 17.8 63 17 95 95 N N/A 30.21 1023 7 11 N/A
8:35 am 08:35 Sunny 65 18.6 63 17.4 93 93 WNW 3 6 30.21 1023 7 11 N/A
8:55 am 08:55 Sunny 68 20 64 18 88 88 NNW 3 6 30.20 1023 10 16 N/A
9:15 am 09:15 Sunny 70 21.2 65 18.4 84 84 NNW 5 7 30.20 1023 10 16 N/A
9:35 am 09:35 Sunny 72 22.3 65 18.6 80 80 NNW 5 7 30.18 1022 10 16 N/A
9:55 am 09:55 Sunny 74 23.4 66 18.9 76 76 NW 6 9 30.17 1022 10 16 N/A
10:15 am 10:15 Sunny 75 24.1 66 18.8 72 72 NW 6 9 30.17 1022 10 16 N/A
10:35 am 10:35 Sunny 77 24.8 67 19.2 71 71 NW 6 9 30.17 1022 10 16 N/A
10:55 am 10:55 Sunny 78 25.6 66 18.9 67 67 NW 5 7 30.16 1021 10 16 N/A
11:15 am 11:15 Sunny 79 26.1 66 19 65 65 N 3 6 30.17 1022 10 16 N/A
11:35 am 11:35 Sunny 80 26.7 65 18.3 60 60 N 5 7 30.16 1021 10 16 N/A
11:55 am 11:55 Sunny 82 27.6 65 18.1 56 56 N N/A 30.14 1021 10 16 N/A
12:15 pm 12:15 Sunny 82 27.7 63 17.2 53 53 E 5 7 30.14 1021 10 16 N/A
12:35 pm 12:35 Sunny 82 27.6 62 16.7 51 51 N N/A 30.13 1020 10 16 N/A
12:55 pm 12:55 Sunny 83 28.1 60 15.7 47 47 NNE 3 6 30.14 1021 10 16 N/A
1:15 pm 13:15 Sunny 83 28.5 58 14.7 43 43 NNE 5 7 30.13 1020 10 16 N/A
1:35 pm 13:35 Sunny 83 28.5 59 14.8 43 43 N N/A 30.12 1020 10 16 N/A
1:55 pm 13:55 Sunny 84 28.7 57 13.8 40 40 N N/A 30.12 1020 10 16 N/A
2:15 pm 14:15 Sunny 84 29 59 14.9 42 42 N N/A 30.08 1019 10 16 N/A
2:35 pm 14:35 Sunny 84 29 57 14 40 40 N N/A 30.09 1019 10 16 N/A
2:55 pm 14:55 Sunny 85 29.5 56 13.2 37 37 NE 5 7 30.08 1019 10 16 N/A
3:15 pm 15:15 Sunny 85 29.6 56 13.1 36 36 N 3 6 30.07 1018 10 16 N/A
3:35 pm 15:35 Sunny 85 29.7 54 12.2 34 34 NNE 3 6 30.08 1019 10 16 N/A
3:55 pm 15:55 Sunny 86 30 56 13.2 36 36 N N/A 30.07 1018 10 16 N/A
4:15 pm 16:15 Sunny 86 30.2 55 12.5 34 34 N N/A 30.04 1017 10 16 N/A
4:35 pm 16:35 Sunny 86 30.1 56 13.4 36 36 SSE 5 7 30.04 1017 7 11 N/A
4:55 pm 16:55 Sunny 86 29.9 55 12.9 35 35 S 3 6 30.06 1018 10 16 N/A
5:15 pm 17:15 Sunny 86 29.8 53 11.7 33 33 N N/A 30.05 1018 10 16 N/A
5:35 pm 17:35 Sunny 87 30.4 53 11.6 31 31 SE 3 6 30.02 1017 10 16 N/A
5:55 pm 17:55 Sunny 86 29.9 52 11.2 31 31 N N/A 30.05 1018 10 16 N/A
6:15 pm 18:15 Sunny 86 30.1 55 12.7 34 34 SSE 6 9 30.02 1016 10 16 N/A
6:35 pm 18:35 Sunny 86 29.8 55 12.6 35 35 SSE 5 7 30.02 1017 10 16 N/A
6:55 pm 18:55 Sunny 85 29.5 55 12.5 35 35 S 3 6 30.02 1017 10 16 N/A
7:15 pm 19:15 Sunny 84 29 56 13.2 38 38 N N/A 30.02 1017 10 16 N/A
7:35 pm 19:35 Sunny 83 28.6 56 13.1 38 38 N N/A 30.04 1017 10 16 N/A
7:55 pm 19:55 Sunny 83 28.3 54 12.2 37 37 N N/A 30.04 1017 10 16 N/A
8:15 pm 20:15 Sunny 81 27.1 58 14.6 46 46 N N/A 30.05 1018 10 16 N/A
8:35 pm 20:35 Clear 77 24.9 62 16.8 61 61 N N/A 30.07 1018 10 16 N/A
8:55 pm 20:55 Clear 76 24.2 62 16.7 63 63 N N/A 30.07 1018 10 16 N/A
9:15 pm 21:15 Clear 74 23.1 61 16 64 64 N N/A 30.09 1019 10 16 N/A
9:35 pm 21:35 Clear 73 23 61 16 65 65 N N/A 30.10 1019 10 16 N/A
9:55 pm 21:55 Clear 71 21.8 62 16.5 72 72 N N/A 30.12 1020 10 16 N/A
10:15 pm 22:15 Clear 68 20.1 62 16.5 80 80 N N/A 30.12 1020 10 16 N/A
10:35 pm 22:35 Clear 67 19.5 61 16.1 81 81 SE 3 6 30.12 1020 10 16 N/A
10:55 pm 22:55 Clear 66 18.7 62 16.4 87 87 SSE 3 6 30.13 1020 10 16 N/A
11:15 pm 23:15 Clear 65 18.5 61 16 85 85 SE 3 6 30.13 1020 10 16 N/A
11:35 pm 23:35 Clear 65 18.2 60 15.3 83 83 SE 3 6 30.13 1020 10 16 N/A
11:55 pm 23:55 Clear 68 20 59 15.2 74 74 S 5 7 30.13 1020 10 16 N/A

Powered by AerisWeather